GW4833 Weather Reports


time (UTC)temp
C
wind
direction
speed
KPH
gust
KPH
rain 1hr
cm
rain 24hr
cm
rain mn
cm
humidity
%
barometer
mb
20260906103647 21 217 0.0 1.6 0.00 0.00 0.00 99 1013.3
20260906103142 21 17 0.0 1.6 0.00 0.00 0.00 99 1013.2
20260906102637 21 311 0.0 1.6 0.00 0.00 0.00 99 1013.3
20260906102132 21 184 0.0 3.2 0.00 0.00 0.00 99 1013.2
20260906101631 21 58 3.2 4.8 0.00 0.00 0.00 99 1013.1
20260906101131 21 98 0.0 4.8 0.00 0.00 0.00 99 1013.2
20260906100627 21 0 0.0 3.2 0.00 0.00 0.00 99 1012.8
20260906100122 21 20 0.0 3.2 0.00 0.00 0.00 99 1012.9
20260906095621 21 336 0.0 1.6 0.00 0.00 0.00 99 1012.9
20260906095117 21 25 1.6 3.2 0.00 0.00 0.00 99 1012.9
20260906094616 21 336 0.0 1.6 0.00 0.00 0.00 99 1012.7
20260906094112 21 74 4.8 4.8 0.00 0.00 0.00 99 1013.0
20260906093608 21 235 3.2 6.4 0.00 0.00 0.00 99 1012.9
20260906093102 21 297 0.0 3.2 0.00 0.00 0.00 99 1012.6
20260906092558 21 348 0.0 1.6 0.00 0.00 0.00 99 1012.6
20260906092053 21 350 0.0 3.2 0.00 0.00 0.00 99 1012.7
20260906091548 20 36 0.0 3.2 0.00 0.00 0.00 99 1012.5
20260906091045 20 13 0.0 0.0 0.00 0.00 0.00 99 1012.3
20260906090545 20 50 0.0 1.6 0.00 0.00 0.00 99 1012.4
20260906090039 20 157 0.0 3.2 0.00 0.00 0.00 99 1012.3
20260906085538 20 345 0.0 0.0 0.00 0.00 0.00 99 1012.3
20260906085039 20 335 0.0 0.0 0.00 0.00 0.00 99 1012.1
20260906084539 20 283 1.6 3.2 0.00 0.00 0.00 99 1011.9
20260906084037 20 315 1.6 3.2 0.00 0.00 0.00 99 1012.3
20260906083533 20 269 1.6 3.2 0.00 0.00 0.00 99 1012.1
20260906083033 20 303 0.0 3.2 0.00 0.00 0.00 99 1011.9
20260906082528 20 291 3.2 3.2 0.00 0.00 0.00 99 1012.0
20260906082024 20 320 0.0 1.6 0.00 0.00 0.00 99 1012.0
20260906081519 20 310 0.0 1.6 0.00 0.00 0.00 99 1012.0
20260906081015 20 352 0.0 1.6 0.00 0.00 0.00 99 1011.9
20260906080512 20 296 1.6 1.6 0.00 0.00 0.00 99 1011.7
20260906080007 20 321 0.0 1.6 0.00 0.00 0.00 99 1011.5
20260906075501 20 297 0.0 3.2 0.00 0.00 0.00 99 1011.4
20260906074957 20 325 0.0 1.6 0.00 0.00 0.00 99 1011.8
20260906074456 20 269 1.6 1.6 0.00 0.00 0.00 99 1011.7
20260906073954 20 297 1.6 3.2 0.00 0.00 0.00 99 1011.8
20260906073450 20 287 1.6 3.2 0.05 0.00 0.00 99 1011.8
20260906072946 20 281 3.2 3.2 0.05 0.00 0.00 99 1012.0
20260906072441 20 310 0.0 3.2 0.00 0.00 0.00 99 1011.7
20260906071937 20 308 3.2 3.2 0.00 0.00 0.00 99 1011.8
20260906071433 20 278 1.6 3.2 0.00 0.00 0.00 99 1012.0
20260906070929 20 283 1.6 3.2 0.00 0.00 0.00 99 1012.0
20260906070424 20 326 0.0 1.6 0.00 0.00 0.00 99 1011.9
20260906065920 20 307 0.0 3.2 0.00 0.00 0.00 99 1012.2
20260906065414 20 284 3.2 3.2 0.00 0.00 0.00 99 1012.1
20260906064911 20 314 1.6 3.2 0.00 0.00 0.00 99 1012.3
20260906064407 20 295 1.6 3.2 0.00 0.00 0.00 99 1012.3
20260906063906 20 292 1.6 1.6 0.00 0.00 0.00 99 1012.2
20260906063401 20 281 1.6 3.2 0.00 0.00 0.00 99 1012.2
20260906062856 20 326 0.0 1.6 0.00 0.00 0.00 99 1012.2
20260906062355 20 44 0.0 0.0 0.00 0.00 0.00 99 1012.1
20260906061851 20 274 1.6 3.2 0.00 0.00 0.00 99 1012.3
20260906061348 20 323 0.0 0.0 0.00 0.00 0.00 99 1012.4
20260906060842 20 309 0.0 1.6 0.00 0.00 0.00 99 1012.5
20260906060340 20 276 0.0 1.6 0.00 0.00 0.00 99 1012.4
20260906055835 20 317 0.0 1.6 0.00 0.00 0.00 99 1012.4
20260906055331 20 290 1.6 3.2 0.00 0.00 0.00 99 1012.5
20260906054826 20 273 0.0 3.2 0.00 0.00 0.00 99 1012.3
20260906054321 20 306 0.0 1.6 0.00 0.00 0.00 99 1012.4
20260906053818 20 37 0.0 1.6 0.00 0.00 0.00 99 1012.5
20260906053313 20 322 0.0 0.0 0.00 0.00 0.00 99 1012.5
20260906052808 20 316 1.6 3.2 0.00 0.00 0.00 99 1012.5
20260906052306 20 37 0.0 1.6 0.00 0.00 0.00 99 1012.5
20260906051801 20 271 3.2 3.2 0.00 0.00 0.00 99 1012.4
20260906051300 20 269 3.2 3.2 0.00 0.00 0.00 99 1012.4
20260906050756 20 272 0.0 1.6 0.00 0.00 0.00 99 1012.5
20260906050251 20 15 0.0 1.6 0.00 0.00 0.00 99 1012.6
20260906045749 20 267 3.2 3.2 0.00 0.00 0.00 99 1012.7
20260906045244 20 29 0.0 0.0 0.00 0.00 0.00 99 1012.6
20260906044740 20 269 0.0 3.2 0.00 0.00 0.00 99 1012.9
20260906044235 20 32 0.0 3.2 0.00 0.00 0.00 99 1013.0
20260906043731 20 6 0.0 1.6 0.00 0.00 0.00 99 1012.9
20260906043227 20 273 1.6 1.6 0.00 0.00 0.00 99 1013.0
20260906042727 21 315 0.0 3.2 0.00 0.00 0.00 99 1013.1
20260906042225 21 283 0.0 1.6 0.00 0.00 0.00 99 1013.2
20260906041721 21 55 0.0 1.6 0.00 0.00 0.00 99 1013.3
20260906041211 21 246 0.0 0.0 0.00 0.00 0.00 99 1013.3
20260906040707 21 309 0.0 1.6 0.00 0.00 0.00 99 1013.0
20260906040202 21 322 0.0 1.6 0.00 0.00 0.00 99 1013.1
20260906035658 21 289 0.0 3.2 0.00 0.76 0.76 99 1013.1
20260906035153 21 32 0.0 0.0 0.00 0.76 0.76 99 1013.4
20260906034652 21 66 1.6 3.2 0.00 0.76 0.76 99 1013.5
20260906034147 21 252 1.6 3.2 0.00 0.76 0.76 99 1013.4
20260906033643 21 259 1.6 3.2 0.00 0.76 0.76 99 1013.4
20260906033138 21 339 0.0 0.0 0.00 0.76 0.76 99 1013.1
20260906032635 21 32 0.0 1.6 0.00 0.76 0.76 99 1013.3
20260906032134 21 265 1.6 3.2 0.00 0.76 0.76 99 1013.1
20260906031630 21 89 0.0 3.2 0.00 0.76 0.76 99 1013.1
20260906031125 21 113 0.0 1.6 0.00 0.76 0.76 99 1012.9
20260906030624 21 272 3.2 4.8 0.00 0.76 0.76 99 1012.7
20260906030120 21 294 3.2 3.2 0.00 0.76 0.76 99 1012.5
20260906025619 21 269 3.2 4.8 0.00 0.76 0.76 99 1012.5
20260906025118 21 282 3.2 4.8 0.00 0.76 0.76 99 1012.7
20260906024613 21 267 3.2 4.8 0.00 0.76 0.76 99 1012.7
20260906024107 21 271 3.2 4.8 0.00 0.76 0.76 99 1012.5
20260906023603 21 284 3.2 3.2 0.00 0.76 0.76 99 1012.6
20260906023057 21 276 1.6 3.2 0.00 0.76 0.76 99 1012.6
20260906022552 21 277 1.6 3.2 0.00 0.76 0.76 99 1012.6
20260906022048 21 284 3.2 3.2 0.00 0.76 0.76 99 1012.7
20260906021544 21 272 1.6 4.8 0.00 0.76 0.76 99 1012.5
20260906021043 21 248 3.2 4.8 0.00 0.76 0.76 99 1012.5
20260906020542 21 259 1.6 3.2 0.00 0.76 0.76 99 1012.5
20260906020036 21 290 3.2 3.2 0.00 0.76 0.76 99 1012.4
20260906015535 21 261 0.0 3.2 0.00 0.76 0.76 99 1012.4
20260906015030 21 256 0.0 3.2 0.00 0.76 0.76 99 1012.6
20260906014525 21 276 1.6 3.2 0.00 0.76 0.76 99 1012.4
20260906014021 21 299 0.0 3.2 0.00 0.76 0.76 99 1012.3
20260906013516 21 304 1.6 3.2 0.00 0.76 0.76 99 1012.4
20260906013011 21 286 3.2 3.2 0.00 0.76 0.76 99 1012.5
20260906012507 21 286 3.2 4.8 0.00 0.76 0.76 99 1012.3
20260906012006 21 272 3.2 3.2 0.00 0.76 0.76 99 1012.4
20260906011502 21 267 3.2 3.2 0.00 0.76 0.76 99 1012.2
20260906011002 21 268 3.2 3.2 0.00 0.76 0.76 99 1012.2
20260906010457 21 273 1.6 3.2 0.00 0.76 0.76 99 1012.0
20260906005954 21 319 0.0 1.6 0.00 0.76 0.76 99 1012.1
20260906005452 21 311 1.6 1.6 0.00 0.76 0.76 99 1012.0
20260906004951 21 269 1.6 3.2 0.00 0.76 0.76 99 1012.0
20260906004451 21 288 3.2 4.8 0.00 0.76 0.76 99 1011.9
20260906003947 21 274 3.2 4.8 0.00 0.76 0.76 99 1012.0
20260906003442 21 266 3.2 4.8 0.00 0.76 0.76 99 1012.0
20260906002937 21 283 4.8 4.8 0.00 0.76 0.76 99 1012.0
20260906002436 21 281 3.2 3.2 0.00 0.76 0.76 99 1011.9
20260906001932 21 291 3.2 4.8 0.00 0.76 0.76 99 1012.0
20260906001427 21 293 4.8 4.8 0.00 0.76 0.76 99 1012.0
20260906000917 21 269 3.2 3.2 0.00 0.76 0.76 99 1011.9
20260906000412 21 275 3.2 3.2 0.00 0.76 0.76 99 1011.9
20260905235907 21 271 3.2 3.2 0.00 0.76 0.76 99 1011.7
20260905235401 21 280 3.2 3.2 0.00 0.76 0.76 99 1011.9
20260905234856 21 274 1.6 3.2 0.00 0.76 0.76 99 1011.8
20260905234351 21 293 0.0 3.2 0.00 0.76 0.76 99 1011.5
20260905233841 22 323 0.0 1.6 0.00 0.76 0.76 99 1011.5
20260905233336 22 269 0.0 1.6 0.00 0.76 0.76 99 1011.3
20260905232835 22 279 3.2 3.2 0.00 0.76 0.76 99 1011.3
20260905232331 22 246 0.0 1.6 0.00 0.76 0.76 99 1011.1
20260905231826 22 288 1.6 3.2 0.00 0.76 0.76 99 1011.4
20260905231321 22 282 1.6 3.2 0.00 0.76 0.76 99 1011.3
20260905230818 22 247 3.2 3.2 0.00 0.76 0.76 99 1011.0
20260905230316 22 294 3.2 4.8 0.00 0.76 0.76 99 1010.9
20260905225815 22 275 3.2 4.8 0.00 0.76 0.76 99 1011.0
20260905225310 22 271 0.0 4.8 0.00 0.76 0.76 99 1011.0
20260905224809 22 264 0.0 3.2 0.00 0.76 0.76 99 1011.1
20260905224305 22 259 3.2 3.2 0.00 0.76 0.76 99 1011.0
20260905223800 22 263 1.6 3.2 0.00 0.76 0.76 99 1011.2
20260905223258 22 256 1.6 4.8 0.00 0.76 0.76 99 1011.1
20260905222753 22 277 3.2 4.8 0.00 0.76 0.76 99 1011.5
20260905222251 23 292 0.0 3.2 0.00 0.76 0.76 99 1011.7
20260905221748 22 251 3.2 6.4 0.00 0.76 0.76 99 1011.8
20260905221244 23 259 1.6 3.2 0.00 0.76 0.76 99 1011.7
20260905220740 23 309 0.0 3.2 0.00 0.76 0.76 99 1011.8
20260905220236 23 307 0.0 3.2 0.00 0.76 0.76 99 1012.0
20260905215735 23 290 1.6 1.6 0.00 0.76 0.76 99 1011.9
20260905215231 23 326 0.0 1.6 0.00 0.76 0.76 99 1011.7
20260905214727 22 235 0.0 1.6 0.00 0.76 0.76 99 1012.0
20260905214222 22 282 3.2 4.8 0.00 0.76 0.76 99 1011.9
20260905213717 22 304 6.4 6.4 0.00 0.76 0.76 99 1011.8
20260905213213 23 315 0.0 3.2 0.00 0.76 0.76 99 1011.9
20260905212708 22 247 0.0 3.2 0.00 0.76 0.76 99 1012.0
20260905212207 22 276 3.2 3.2 0.00 0.76 0.76 99 1012.2
20260905211702 22 312 0.0 3.2 0.00 0.76 0.76 99 1012.0
20260905211157 22 333 0.0 3.2 0.00 0.76 0.76 99 1012.5
20260905210654 22 359 1.6 3.2 0.00 0.76 0.76 99 1012.4
20260905210154 22 311 0.0 3.2 0.00 0.76 0.76 99 1012.6
20260905205653 22 319 1.6 3.2 0.00 0.76 0.76 99 1012.6
20260905205153 22 300 3.2 4.8 0.00 0.76 0.76 99 1012.5
20260905204652 22 300 3.2 4.8 0.00 0.76 0.76 99 1012.1
20260905204147 20 352 4.8 4.8 0.00 0.76 0.76 99 1012.2
20260905203642 20 352 4.8 4.8 0.00 0.76 0.76 99 1011.7
20260905203138 20 352 4.8 4.8 0.00 0.76 0.76 99 1011.4
20260905202633 20 352 4.8 4.8 0.00 0.76 0.76 99 1011.4
20260905202128 20 352 4.8 4.8 0.00 0.76 0.76 99 1011.7
20260905201624 20 352 4.8 4.8 0.00 0.76 0.76 99 1011.8
20260905201123 20 352 4.8 4.8 0.00 0.76 0.76 99 1011.9
20260905200619 20 352 4.8 4.8 0.00 0.76 0.76 99 1012.1
20260905200114 20 352 4.8 4.8 0.00 0.76 0.76 99 1012.1
20260905195613 20 352 4.8 4.8 0.00 0.76 0.76 99 1012.5
20260905195108 20 352 4.8 4.8 0.00 0.76 0.76 99 1012.3
20260905194608 20 348 4.8 8.0 0.00 0.76 0.76 99 1012.7
20260905194108 20 345 6.4 6.4 0.00 0.76 0.76 99 1012.5
20260905193602 20 347 6.4 6.4 0.00 0.76 0.76 99 1012.3
20260905193057 20 323 6.4 8.0 0.05 0.76 0.76 99 1012.1
20260905192553 20 333 6.4 6.4 0.05 0.76 0.76 99 1011.4
20260905192050 20 1 4.8 6.4 0.00 0.76 0.76 99 1011.2
20260905191548 20 21 3.2 3.2 0.00 0.76 0.76 99 1012.0
20260905191047 20 11 3.2 3.2 0.00 0.76 0.76 99 1012.4
20260905190545 20 293 3.2 4.8 0.43 0.76 0.76 99 1012.8
20260905190039 20 312 1.6 3.2 1.55 0.74 0.74 99 1012.8
20260905185539 20 172 1.6 4.8 3.66 0.61 0.61 99 1012.5
20260905185038 20 154 6.4 24.1 2.39 0.41 0.41 98 1013.1
20260905184532 25 246 17.7 33.8 0.00 0.00 0.00 83 1011.8
20260905184031 30 219 16.1 17.7 0.00 0.00 0.00 68 1012.4
20260905183531 31 78 0.0 3.2 0.00 0.00 0.00 65 1011.3
20260905183026 32 77 0.0 1.6 0.00 0.00 0.00 63 1011.3
20260905182521 32 239 3.2 4.8 0.00 0.00 0.00 61 1011.2
20260905182020 32 255 1.6 3.2 0.00 0.00 0.00 61 1011.4
20260905181515 33 250 3.2 6.4 0.00 0.00 0.00 57 1011.7
20260905181015 33 129 0.0 4.8 0.00 0.00 0.00 57 1011.7
20260905180510 33 231 0.0 8.0 0.00 0.00 0.00 56 1012.1
20260905180005 34 302 3.2 12.9 0.00 0.00 0.00 57 1012.1
20260905175504 34 62 3.2 3.2 0.00 0.00 0.00 56 1012.1
20260905175000 35 292 4.8 8.0 0.00 0.00 0.00 55 1012.1
20260905174455 34 232 6.4 16.1 0.00 0.00 0.00 56 1012.2
20260905173951 34 16 8.0 12.9 0.00 0.00 0.00 54 1012.3
20260905173447 34 243 4.8 9.7 0.00 0.00 0.00 55 1012.7
20260905172942 33 68 3.2 9.7 0.00 0.00 0.00 55 1012.7
20260905172440 33 240 11.3 12.9 0.00 0.00 0.00 57 1013.1
20260905171936 33 344 3.2 9.7 0.00 0.00 0.00 59 1013.2
20260905171432 33 237 8.0 17.7 0.00 0.00 0.00 58 1013.1
20260905170928 33 242 8.0 14.5 0.00 0.00 0.00 58 1013.2
20260905170424 33 238 6.4 14.5 0.00 0.00 0.00 57 1013.3
20260905165924 33 153 1.6 14.5 0.00 0.00 0.00 57 1013.4
20260905165419 33 268 0.0 9.7 0.00 0.00 0.00 57 1013.3
20260905164915 33 256 4.8 8.0 0.00 0.00 0.00 56 1013.2
20260905164409 33 194 6.4 20.9 0.00 0.00 0.00 56 1013.4
20260905163904 33 145 4.8 8.0 0.00 0.00 0.00 55 1013.2
20260905163401 33 216 0.0 8.0 0.00 0.00 0.00 55 1013.6
20260905162856 33 235 4.8 14.5 0.00 0.00 0.00 58 1013.4
20260905162355 33 300 11.3 14.5 0.00 0.00 0.00 58 1013.5
20260905161850 33 293 8.0 9.7 0.00 0.00 0.00 58 1013.6
20260905161349 33 260 3.2 9.7 0.00 0.00 0.00 59 1013.6
20260905160848 33 272 1.6 6.4 0.00 0.00 0.00 61 1013.7
20260905160342 32 104 6.4 12.9 0.00 0.00 0.00 59 1013.8
20260905155837 33 238 3.2 6.4 0.00 0.00 0.00 61 1013.9
20260905155336 32 284 3.2 4.8 0.00 0.00 0.00 62 1013.6
20260905154830 32 246 3.2 11.3 0.00 0.00 0.00 63 1013.8
20260905154326 32 210 4.8 6.4 0.00 0.00 0.00 62 1013.9
20260905153821 32 246 3.2 9.7 0.00 0.00 0.00 64 1013.9
20260905153318 32 237 1.6 4.8 0.00 0.00 0.00 63 1013.8
20260905152817 32 261 3.2 6.4 0.00 0.00 0.00 63 1013.8
20260905152317 32 315 3.2 6.4 0.00 0.00 0.00 64 1013.9
20260905151812 31 251 6.4 12.9 0.00 0.00 0.00 67 1014.1
20260905151308 31 273 4.8 8.0 0.00 0.00 0.00 64 1014.1
20260905150807 31 267 3.2 8.0 0.00 0.00 0.00 66 1014.1
20260905150302 31 245 3.2 14.5 0.00 0.00 0.00 67 1014.0
20260905145759 31 277 6.4 9.7 0.00 0.00 0.00 66 1014.2
20260905145259 31 237 0.0 4.8 0.00 0.00 0.00 69 1014.1
20260905144757 31 308 8.0 8.0 0.00 0.00 0.00 66 1014.2
20260905144254 31 246 11.3 11.3 0.00 0.00 0.00 66 1014.2
20260905143752 30 343 0.0 6.4 0.00 0.00 0.00 69 1014.2
20260905143247 30 247 3.2 6.4 0.00 0.00 0.00 70 1014.2
20260905142745 30 308 4.8 8.0 0.00 0.00 0.00 70 1014.1
20260905142240 30 263 3.2 4.8 0.00 0.00 0.00 72 1014.0
20260905141736 30 259 3.2 6.4 0.00 0.00 0.00 72 1013.9
20260905141231 30 280 6.4 6.4 0.00 0.00 0.00 72 1014.0
20260905140721 29 238 11.3 11.3 0.00 0.00 0.00 73 1013.9
20260905140220 29 239 4.8 11.3 0.00 0.00 0.00 72 1013.9
20260905135714 30 250 0.0 3.2 0.00 0.00 0.00 72 1013.9
20260905135211 28 264 4.8 4.8 0.00 0.00 0.00 73 1014.1
20260905134710 28 245 3.2 8.0 0.00 0.00 0.00 74 1014.0
20260905134209 28 260 3.2 11.3 0.00 0.00 0.00 76 1013.9
20260905133704 28 240 9.7 9.7 0.00 0.00 0.00 77 1014.0
20260905133159 28 257 3.2 4.8 0.00 0.00 0.00 78 1014.1
20260905132658 27 262 3.2 4.8 0.00 0.00 0.00 81 1014.1
20260905132154 27 292 3.2 3.2 0.00 0.00 0.00 81 1014.0
20260905131649 26 219 0.0 3.2 0.00 0.00 0.00 82 1014.2
20260905131149 26 281 3.2 6.4 0.00 0.00 0.00 84 1014.2
20260905130644 25 327 1.6 4.8 0.00 0.00 0.00 87 1014.2
20260905130144 25 284 3.2 9.7 0.00 0.00 0.00 86 1014.3
20260905125638 25 280 3.2 4.8 0.00 0.00 0.00 90 1014.4
20260905125134 25 280 6.4 8.0 0.00 0.00 0.00 91 1014.3
20260905124630 24 204 3.2 4.8 0.00 0.00 0.00 91 1014.6
20260905124126 23 306 3.2 3.2 0.00 0.00 0.00 94 1014.6
20260905123622 23 0 0.0 3.2 0.00 0.00 0.00 96 1014.4
20260905123119 22 188 1.6 3.2 0.00 0.00 0.00 98 1014.3
20260905122618 22 315 0.0 3.2 0.00 0.00 0.00 98 1014.3
20260905122113 22 329 0.0 3.2 0.00 0.00 0.00 99 1014.3
20260905121607 22 265 1.6 3.2 0.00 0.00 0.00 99 1014.4
20260905121102 21 290 0.0 3.2 0.00 0.00 0.00 99 1014.4
20260905120556 21 283 0.0 3.2 0.00 0.00 0.00 99 1014.3
20260905120051 21 305 1.6 3.2 0.00 0.00 0.00 99 1014.3
20260905115550 21 21 0.0 3.2 0.00 0.00 0.00 99 1014.3
20260905115044 21 283 0.0 3.2 0.00 0.00 0.00 99 1014.3
20260905114544 21 19 0.0 3.2 0.00 0.00 0.00 99 1014.1
20260905114038 21 47 1.6 3.2 0.00 0.00 0.00 99 1014.2
20260905113533 21 145 0.0 3.2 0.00 0.00 0.00 99 1014.0
20260905113028 20 5 0.0 3.2 0.00 0.00 0.00 99 1013.7
20260905112523 20 308 0.0 1.6 0.00 0.00 0.00 99 1013.6
20260905112019 20 281 0.0 1.6 0.00 0.00 0.00 99 1013.7
20260905111518 20 314 1.6 3.2 0.00 0.00 0.00 99 1013.8
20260905111018 20 269 0.0 3.2 0.00 0.00 0.00 99 1013.5
20260905110517 20 14 0.0 3.2 0.00 0.00 0.00 99 1013.8
20260905110013 20 9 0.0 1.6 0.00 0.00 0.00 99 1013.5
20260905105508 20 338 0.0 1.6 0.00 0.00 0.00 99 1013.4
20260905105007 20 26 0.0 1.6 0.00 0.00 0.00 99 1013.4
20260905104503 21 322 0.0 3.2 0.00 0.00 0.00 99 1013.4
20260905103957 21 294 0.0 3.2 0.00 0.00 0.00 99 1013.5